Location: Kielce
(50.8833°N, 20.6167°E)
Time: 22:21:23
(UTC+02:00)

SR - Pass Details

Date: 20 April 2021
Orbit: 573 x 882 km, 66.7° (Epoch: 09 May)

Event Time Altitude Azimuth Distance (km) Brightness Sun altitude
Rises 15:29:02 0° 322° (NW) 3,491 ? 37.5°
Reaches altitude 10° 15:31:39 10° 327° (NNW) 2,540 ? 37.1°
Maximum altitude 15:37:26 53° 44° (NE) 1,049 ? 36.3°
Drops below altitude 10° 15:42:54 10° 121° (ESE) 2,405 ? 35.6°
Sets 15:45:19 0° 126° (SE) 3,290 ? 35.2°
